Date String (YYYY-MM-DD hh:mm:ss) UTC,Instrument flags,Ambient pressure (hPa),Sample flow (lpm),Bypass flow (lpm),Sample temperature (°C),Ambient temperature (°C),ASC tube jacket temperature (°C),LED temperature (°C),Box temperature (°C),Sample RH (%),Span deviation,Mass concentration (μg/m³),Mass concentration (μg/m³),Mass concentration (μg/m³)
DateTimeUTC,F1_M11,P_M11,Q1_M11,Q2_M11,T1_M11,T2_M11,T3_M11,T4_M11,T5_M11,U1_M11,ZSPAN_M11,X0_M11,X2_M11,X1_M11
2022-12-16 05:00:00,,0822.9,5.04,0.00,22.2,21.7,00.0,30.9,24.1,03.9,0000.0,0001.18,0000.88,0000.77
2022-12-16 05:01:00,,0823.0,4.96,0.00,22.2,21.4,00.0,30.9,24.0,03.9,0000.0,0001.18,0000.88,0000.77
2022-12-16 05:02:00,,0823.0,5.03,0.00,22.1,21.1,00.0,30.9,23.9,03.9,0000.0,0001.16,0000.85,0000.76
2022-12-16 05:03:00,,0823.0,5.01,0.00,22.1,20.9,00.0,30.9,23.9,03.9,0000.0,0001.35,0000.87,0000.76
2022-12-16 05:04:00,,0823.0,4.97,0.00,22.1,20.8,00.0,30.9,23.9,03.8,0000.0,0001.39,0000.87,0000.76
2022-12-16 05:05:00,,0823.0,5.00,0.00,22.1,20.7,00.0,30.9,23.8,03.9,0000.0,0001.49,0000.87,0000.76
2022-12-16 05:06:00,,0822.9,5.03,0.00,22.0,20.5,00.0,30.9,23.8,03.9,0000.0,0001.62,0000.88,0000.75
2022-12-16 05:07:00,,0823.0,4.97,0.00,22.0,20.4,00.0,30.9,23.8,03.9,0000.0,0001.60,0000.87,0000.74
2022-12-16 05:08:00,,0823.0,5.03,0.00,22.0,20.4,00.0,30.9,23.7,03.9,0000.0,0001.69,0000.89,0000.74
2022-12-16 05:09:00,,0823.0,4.99,0.00,22.0,20.5,00.0,30.9,23.7,03.9,0000.0,0001.67,0000.88,0000.75
2022-12-16 05:10:00,,0823.0,4.99,0.00,22.0,21.4,00.0,30.8,23.9,03.8,0000.0,0001.55,0000.85,0000.74
2022-12-16 05:11:00,,0823.0,5.00,0.00,22.2,22.2,00.0,30.8,24.1,03.8,0000.0,0001.60,0000.86,0000.75
2022-12-16 05:12:00,,0823.0,5.00,0.00,22.2,21.9,00.0,30.9,24.1,03.8,0000.0,0001.65,0000.89,0000.75
2022-12-16 05:13:00,,0823.0,4.98,0.00,22.2,21.5,00.0,30.9,24.1,03.8,0000.0,0001.67,0000.90,0000.75
2022-12-16 05:14:00,,0823.0,4.98,0.00,22.2,21.2,00.0,30.9,24.0,03.8,0000.0,0001.59,0000.93,0000.77
2022-12-16 05:15:00,,0823.0,5.04,0.00,22.1,20.9,00.0,31.0,23.9,03.9,0000.0,0001.53,0000.93,0000.77
2022-12-16 05:16:00,,0822.9,4.98,0.00,22.1,20.7,00.0,30.9,23.8,03.9,0000.0,0001.55,0000.95,0000.77
2022-12-16 05:17:00,,0823.0,5.03,0.00,22.1,20.5,00.0,30.9,23.8,03.9,0000.0,0001.39,0000.94,0000.77
2022-12-16 05:18:00,,0823.0,4.99,0.00,22.0,20.4,00.0,30.9,23.7,03.8,0000.0,0001.42,0000.95,0000.78
2022-12-16 05:19:00,,0823.0,4.97,0.00,22.0,20.3,00.0,30.9,23.7,03.9,0000.0,0001.37,0000.96,0000.78
2022-12-16 05:20:00,,0822.9,5.05,0.00,22.0,20.2,00.0,30.9,23.6,03.8,0000.0,0001.41,0000.98,0000.78
2022-12-16 05:21:00,,0822.9,4.97,0.00,21.9,20.0,00.0,30.9,23.6,03.8,0000.0,0001.51,0001.01,0000.78
2022-12-16 05:22:00,,0822.9,5.04,0.00,21.9,19.9,00.0,30.9,23.5,03.9,0000.0,0001.50,0001.01,0000.78
2022-12-16 05:23:00,,0822.9,4.98,0.00,21.9,20.7,00.0,30.8,23.7,03.9,0000.0,0001.53,0001.03,0000.79
2022-12-16 05:24:00,,0822.9,5.00,0.00,22.0,21.8,00.0,30.8,23.9,03.8,0000.0,0001.54,0001.04,0000.80
2022-12-16 05:25:00,,0822.9,4.98,0.00,22.1,21.9,00.0,30.8,24.0,03.9,0000.0,0001.46,0001.01,0000.81
2022-12-16 05:26:00,,0822.9,5.05,0.00,22.1,21.5,00.0,30.8,23.9,03.9,0000.0,0001.46,0001.01,0000.82
2022-12-16 05:27:00,,0822.9,4.98,0.00,22.1,21.2,00.0,30.9,23.9,04.0,0000.0,0001.52,0001.00,0000.84
2022-12-16 05:28:00,,0822.9,5.02,0.00,22.0,20.9,00.0,30.9,23.8,04.0,0000.0,0001.73,0001.02,0000.85
2022-12-16 05:29:00,,0822.9,4.97,0.00,22.0,20.7,00.0,30.9,23.8,04.0,0000.0,0001.79,0001.04,0000.86
2022-12-16 05:30:00,,0822.8,5.02,0.00,22.0,20.6,00.0,30.9,23.7,03.9,0000.0,0001.89,0001.06,0000.88
2022-12-16 05:31:00,,0822.7,5.01,0.00,22.0,20.5,00.0,30.8,23.7,03.9,0000.0,0001.92,0001.07,0000.89
2022-12-16 05:32:00,,0822.7,4.97,0.00,22.0,20.5,00.0,30.8,23.7,03.8,0000.0,0001.87,0001.06,0000.90
2022-12-16 05:33:00,,0822.7,5.03,0.00,21.9,20.4,00.0,30.8,23.7,03.8,0000.0,0001.86,0001.05,0000.90
2022-12-16 05:34:00,,0822.8,4.97,0.00,21.9,20.3,00.0,30.8,23.7,03.7,0000.0,0001.78,0001.02,0000.89
2022-12-16 05:35:00,,0822.8,5.03,0.00,21.9,20.3,00.0,30.8,23.6,03.8,0000.0,0001.77,0001.00,0000.87
2022-12-16 05:36:00,,0822.7,4.98,0.00,21.9,20.7,00.0,30.8,23.7,03.8,0000.0,0001.81,0001.01,0000.87
2022-12-16 05:37:00,,0822.8,5.00,0.00,22.0,21.7,00.0,30.7,23.9,03.8,0000.0,0001.97,0001.02,0000.86
2022-12-16 05:38:00,,0822.7,5.01,0.00,22.1,22.3,00.0,30.8,24.1,03.7,0000.0,0001.91,0001.01,0000.84
2022-12-16 05:39:00,,0822.7,4.97,0.00,22.2,21.9,00.0,30.8,24.1,03.6,0000.0,0001.59,0000.97,0000.82
2022-12-16 05:40:00,,0822.6,5.04,0.00,22.1,21.5,00.0,30.9,24.0,03.5,0000.0,0001.49,0000.93,0000.79
2022-12-16 05:41:00,,0822.6,4.95,0.00,22.1,21.2,00.0,30.9,23.9,03.5,0000.0,0001.33,0000.88,0000.77
2022-12-16 05:42:00,,0822.6,5.05,0.00,22.1,20.9,00.0,30.9,23.8,03.5,0000.0,0001.24,0000.83,0000.74
2022-12-16 05:43:00,,0822.6,4.96,0.00,22.1,20.7,00.0,30.9,23.8,03.7,0000.0,0001.20,0000.81,0000.73
2022-12-16 05:44:00,,0822.6,5.03,0.00,22.0,20.6,00.0,30.9,23.8,03.6,0000.0,0001.22,0000.82,0000.72
2022-12-16 05:45:00,,0822.6,4.99,0.00,22.0,20.4,00.0,30.9,23.7,03.6,0000.0,0001.24,0000.82,0000.71
2022-12-16 05:46:00,,0822.6,4.97,0.00,22.0,20.4,00.0,30.9,23.7,03.6,0000.0,0001.23,0000.81,0000.70
2022-12-16 05:47:00,,0822.6,5.05,0.00,22.0,20.3,00.0,30.9,23.7,03.6,0000.0,0001.19,0000.79,0000.69
2022-12-16 05:48:00,,0822.5,4.98,0.00,21.9,20.3,00.0,30.8,23.7,03.6,0000.0,0001.05,0000.78,0000.68
2022-12-16 05:49:00,,0822.6,4.99,0.00,22.0,20.9,00.0,30.8,23.8,03.6,0000.0,0001.01,0000.76,0000.67
2022-12-16 05:50:00,,0822.6,5.00,0.00,22.1,22.0,00.0,30.8,24.0,03.5,0000.0,0001.03,0000.77,0000.67
2022-12-16 05:51:00,,0822.6,5.00,0.00,22.2,22.2,00.0,30.8,24.1,03.5,0000.0,0001.07,0000.79,0000.68
2022-12-16 05:52:00,,0822.6,4.99,0.00,22.2,21.8,00.0,30.9,24.1,03.5,0000.0,0001.11,0000.79,0000.68
2022-12-16 05:53:00,,0822.5,5.03,0.00,22.1,21.3,00.0,30.9,24.0,03.5,0000.0,0001.12,0000.80,0000.68
2022-12-16 05:54:00,,0822.5,4.98,0.00,22.1,20.9,00.0,30.9,23.8,03.4,0000.0,0001.07,0000.78,0000.68
2022-12-16 05:55:00,,0822.4,4.97,0.00,22.0,20.6,00.0,30.9,23.7,03.4,0000.0,0001.05,0000.77,0000.67
2022-12-16 05:56:00,,0822.4,5.05,0.00,22.0,20.4,00.0,30.9,23.7,03.4,0000.0,0001.06,0000.75,0000.67
2022-12-16 05:57:00,,0822.4,4.97,0.00,22.0,20.3,00.0,30.9,23.7,03.5,0000.0,0001.10,0000.75,0000.67
2022-12-16 05:58:00,,0822.4,5.02,0.00,21.9,20.1,00.0,30.9,23.6,03.5,0000.0,0001.25,0000.75,0000.67
2022-12-16 05:59:00,,0822.4,4.99,0.00,21.9,20.0,00.0,30.8,23.5,03.5,0000.0,0001.72,0000.76,0000.67
